Regional Weather Roundup
Issued by NWS Albany, NY

Home | Current Version | Previous Version | Graphics & Text | Print | Product List | Glossary Off
Versions: 1 2 3 4 5 6 7 8 9 10 11 12 13 14 15 16 17 18 19 20 21 22 23 24 25 26 27 28

000
ASUS41 KALY 251710
RWRALY

NEW YORK STATE HOURLY WEATHER ROUNDUP
NATIONAL WEATHER SERVICE ALBANY NY
100 PM EDT SAT MAR 25 2017

NOTE: "FAIR" INDICATES FEW OR NO CLOUDS BELOW 12,000 FEET WITH NO
SIGNIFICANT WEATHER AND/OR NO OBSTRUCTIONS TO VISIBILITY.

NYZ032-033-038>043-046>054-057>066-NYZ062>081-082-084-251800-
EAST


CITY           SKY/WX    TMP DP  RH WIND       PRES   REMARKS
ALBANY         LGT RAIN  37  31  78 N10       30.30R WCI  30
GLENS FALLS    LGT SNOW  35  32  88 N5        30.32R FOG     WCI  31
POUGHKEEPSIE   CLOUDY    40  35  83 N12       30.23R WCI  33
NEWBURGH       CLOUDY    43  39  87 NE7       30.22R
MONTGOMERY     CLOUDY    43  36  76 N14       30.21R
WHITE PLAINS   CLOUDY    56  41  57 VRB3      30.18R
ISLIP          CLOUDY    58  41  53 S5        30.18R
NEW YORK CITY  CLOUDY    55  38  52 E9        30.17S
CENTRAL PARK   CLOUDY    61  38  42 E6        30.19S
$$

NYZ005>009-017-018-044>046-055-056-251800-
CENTRAL


CITY           SKY/WX    TMP DP  RH WIND       PRES   REMARKS
FULTON         RAIN      35  33  92 N8        30.31R FOG     WCI  29
SYRACUSE       RAIN      36  36 100 CALM      30.30R FOG
ROME           LGT RAIN  36  35  96 NW3       30.31R
ELMIRA         LGT RAIN  38  33  82 NE9       30.29R WCI  31
BINGHAMTON     LGT RAIN  36  36 100 N7        30.22R FOG     WCI  30
MONTICELLO     PTSUNNY   43  37  81 NE8       30.21R
$$

NYZ026>034-041>043-087-251800-
NORTH


CITY           SKY/WX    TMP DP  RH WIND       PRES   REMARKS
WATERTOWN      CLOUDY    37  33  85 NE15      30.32F WCI  28
FORT DRUM      NOT AVBL
MASSENA        CLOUDY    35  29  78 NE13      30.38R WCI  26
SARANAC LAKE   CLOUDY    32  29  88 NE6       30.26R WCI  26
PLATTSBURGH    CLOUDY    34  24  67 N14       30.35R WCI  25
$$

NYZ001>004-010>016-019>021-085-251800-
WEST


CITY           SKY/WX    TMP DP  RH WIND       PRES   REMARKS
NIAGARA FALLS  CLOUDY    37  33  85 E10       30.30S WCI  30
BUFFALO        LGT RAIN  35  32  88 E14       30.30R WCI  26
DUNKIRK        CLOUDY    36  35  96 NE9       30.28R WCI  29
JAMESTOWN      CLOUDY    37  34  87 NW13      30.21R WCI  29
WELLSVILLE     FOG       38  36  92 N7        30.24R VSB<1/4 WCI  33
ROCHESTER      LGT RAIN  36  33  89 E7        30.33S WCI  30
PENN YAN       RAIN      35  31  85 N5        30.31R FOG     WCI  31
$$

             KEY
       WCI = WIND CHILL INDEX
       VSB = VISIBILITY
       HX  = HEAT INDEX
$$




USA.gov is the U.S. government's official web portal to all federal, state and local government web resources and services.